| time (UTC) | temp C | wind direction | speed KPH | gust KPH | rain 1hr cm | rain 24hr cm | rain mn cm | humidity % | barometer mb |
| 20260906230555 | 36 | 167 | 4.8 | 12.9 | 0.00 | 0.00 | 0.00 | 43 | 1010.4 |
| 20260906230106 | 36 | 200 | 1.6 | 8.0 | 0.00 | 0.00 | 0.00 | 43 | 1010.3 |
| 20260906225555 | 36 | 181 | 3.2 | 8.0 | 0.00 | 0.00 | 0.00 | 43 | 1010.3 |
| 20260906225055 | 36 | 209 | 1.6 | 9.7 | 0.00 | 0.00 | 0.00 | 43 | 1010.4 |
| 20260906224605 | 36 | 238 | 0.0 | 11.3 | 0.00 | 0.00 | 0.00 | 43 | 1010.4 |
| 20260906224055 | 36 | 238 | 1.6 | 11.3 | 0.00 | 0.00 | 0.00 | 43 | 1010.2 |
| 20260906223555 | 36 | 200 | 1.6 | 6.4 | 0.00 | 0.00 | 0.00 | 43 | 1010.3 |
| 20260906223109 | 36 | 165 | 0.0 | 6.4 | 0.00 | 0.00 | 0.00 | 42 | 1010.3 |
| 20260906222554 | 36 | 183 | 1.6 | 6.4 | 0.00 | 0.00 | 0.00 | 41 | 1010.4 |
| 20260906222055 | 37 | 61 | 1.6 | 9.7 | 0.00 | 0.00 | 0.00 | 41 | 1010.4 |
| 20260906221606 | 37 | 178 | 1.6 | 9.7 | 0.00 | 0.00 | 0.00 | 40 | 1010.4 |
| 20260906221055 | 37 | 351 | 3.2 | 8.0 | 0.00 | 0.00 | 0.00 | 40 | 1010.5 |
| 20260906220555 | 37 | 0 | 0.0 | 8.0 | 0.00 | 0.00 | 0.00 | 41 | 1010.6 |
| 20260906220106 | 37 | 0 | 1.6 | 8.0 | 0.00 | 0.00 | 0.00 | 41 | 1010.5 |
| 20260906215558 | 37 | 165 | 1.6 | 6.4 | 0.00 | 0.00 | 0.00 | 40 | 1010.8 |
| 20260906215055 | 37 | 219 | 1.6 | 6.4 | 0.00 | 0.00 | 0.00 | 39 | 1010.7 |
| 20260906214606 | 37 | 158 | 0.0 | 6.4 | 0.00 | 0.00 | 0.00 | 41 | 1010.8 |
| 20260906214055 | 37 | 244 | 1.6 | 8.0 | 0.00 | 0.00 | 0.00 | 40 | 1010.8 |
| 20260906213555 | 37 | 53 | 1.6 | 9.7 | 0.00 | 0.00 | 0.00 | 40 | 1010.9 |
| 20260906213103 | 37 | 126 | 4.8 | 9.7 | 0.00 | 0.00 | 0.00 | 40 | 1011.0 |
| 20260906212554 | 38 | 241 | 1.6 | 9.7 | 0.00 | 0.00 | 0.00 | 39 | 1011.0 |
| 20260906212059 | 38 | 176 | 3.2 | 9.7 | 0.00 | 0.00 | 0.00 | 39 | 1011.0 |
| 20260906211600 | 38 | 296 | 1.6 | 6.4 | 0.00 | 0.00 | 0.00 | 40 | 1011.0 |
| 20260906211054 | 38 | 211 | 0.0 | 6.4 | 0.00 | 0.00 | 0.00 | 39 | 1011.0 |
| 20260906210555 | 38 | 85 | 1.6 | 4.8 | 0.00 | 0.00 | 0.00 | 39 | 1011.1 |
| 20260906210109 | 38 | 314 | 1.6 | 8.0 | 0.00 | 0.00 | 0.00 | 38 | 1011.1 |
| 20260906205554 | 38 | 229 | 0.0 | 8.0 | 0.00 | 0.00 | 0.00 | 40 | 1011.2 |
| 20260906205056 | 38 | 132 | 1.6 | 8.0 | 0.00 | 0.00 | 0.00 | 40 | 1011.4 |
| 20260906204610 | 37 | 0 | 1.6 | 8.0 | 0.00 | 0.00 | 0.00 | 40 | 1011.3 |
| 20260906204054 | 38 | 11 | 3.2 | 8.0 | 0.00 | 0.00 | 0.00 | 39 | 1011.5 |
| 20260906203555 | 38 | 223 | 0.0 | 8.0 | 0.00 | 0.00 | 0.00 | 39 | 1011.3 |
| 20260906203104 | 38 | 0 | 1.6 | 9.7 | 0.00 | 0.00 | 0.00 | 40 | 1011.5 |
| 20260906202555 | 38 | 338 | 3.2 | 9.7 | 0.00 | 0.00 | 0.00 | 41 | 1011.5 |
| 20260906202054 | 38 | 205 | 3.2 | 9.7 | 0.00 | 0.00 | 0.00 | 40 | 1011.7 |
| 20260906201600 | 38 | 204 | 1.6 | 6.4 | 0.00 | 0.00 | 0.00 | 39 | 1011.6 |
| 20260906201057 | 38 | 0 | 1.6 | 6.4 | 0.00 | 0.00 | 0.00 | 39 | 1011.6 |
| 20260906200554 | 37 | 0 | 1.6 | 8.0 | 0.00 | 0.00 | 0.00 | 40 | 1011.7 |
| 20260906200105 | 37 | 130 | 1.6 | 8.0 | 0.00 | 0.00 | 0.00 | 41 | 1011.8 |
| 20260906195555 | 37 | 39 | 0.0 | 6.4 | 0.00 | 0.00 | 0.00 | 42 | 1011.9 |
| 20260906195055 | 38 | 220 | 1.6 | 8.0 | 0.00 | 0.00 | 0.00 | 40 | 1011.9 |
| 20260906194608 | 38 | 49 | 1.6 | 8.0 | 0.00 | 0.00 | 0.00 | 42 | 1012.1 |
| 20260906194053 | 37 | 181 | 1.6 | 8.0 | 0.00 | 0.00 | 0.00 | 44 | 1012.0 |
| 20260906193553 | 37 | 0 | 0.0 | 9.7 | 0.00 | 0.00 | 0.00 | 43 | 1012.0 |
| 20260906193101 | 38 | 76 | 1.6 | 9.7 | 0.00 | 0.00 | 0.00 | 42 | 1012.0 |
| 20260906192552 | 37 | 70 | 1.6 | 8.0 | 0.00 | 0.00 | 0.00 | 42 | 1012.1 |
| 20260906192052 | 37 | 273 | 1.6 | 8.0 | 0.00 | 0.00 | 0.00 | 43 | 1012.1 |
| 20260906191610 | 37 | 360 | 1.6 | 8.0 | 0.00 | 0.00 | 0.00 | 42 | 1012.2 |
| 20260906191052 | 36 | 196 | 1.6 | 11.3 | 0.00 | 0.00 | 0.00 | 46 | 1012.2 |
| 20260906190553 | 36 | 223 | 0.0 | 11.3 | 0.00 | 0.00 | 0.00 | 44 | 1012.2 |
| 20260906190109 | 37 | 71 | 3.2 | 11.3 | 0.00 | 0.00 | 0.00 | 42 | 1012.3 |
| 20260906185552 | 38 | 205 | 1.6 | 6.4 | 0.00 | 0.00 | 0.00 | 42 | 1012.4 |
| 20260906185052 | 37 | 161 | 1.6 | 12.9 | 0.00 | 0.00 | 0.00 | 44 | 1012.4 |
| 20260906184615 | 37 | 89 | 1.6 | 12.9 | 0.00 | 0.00 | 0.00 | 44 | 1012.6 |
| 20260906184056 | 36 | 220 | 0.0 | 9.7 | 0.00 | 0.00 | 0.00 | 45 | 1012.6 |
| 20260906183555 | 36 | 221 | 1.6 | 9.7 | 0.00 | 0.00 | 0.00 | 46 | 1012.7 |
| 20260906183114 | 37 | 0 | 0.0 | 8.0 | 0.00 | 0.00 | 0.00 | 46 | 1012.8 |
| 20260906182556 | 38 | 291 | 1.6 | 8.0 | 0.00 | 0.00 | 0.00 | 47 | 1012.9 |
| 20260906182101 | 37 | 83 | 0.0 | 6.4 | 0.00 | 0.00 | 0.00 | 47 | 1012.9 |
| 20260906181606 | 36 | 196 | 1.6 | 6.4 | 0.00 | 0.00 | 0.00 | 47 | 1013.0 |
| 20260906181055 | 36 | 0 | 1.6 | 6.4 | 0.00 | 0.00 | 0.00 | 47 | 1012.9 |
| 20260906180555 | 37 | 265 | 1.6 | 6.4 | 0.00 | 0.00 | 0.00 | 50 | 1013.1 |
| 20260906180127 | 37 | 205 | 0.0 | 6.4 | 0.00 | 0.00 | 0.00 | 46 | 1013.1 |
| 20260906175558 | 37 | 321 | 0.0 | 6.4 | 0.00 | 0.00 | 0.00 | 47 | 1013.3 |
| 20260906175058 | 37 | 204 | 1.6 | 4.8 | 0.00 | 0.00 | 0.00 | 46 | 1013.3 |
| 20260906174625 | 38 | 0 | 1.6 | 4.8 | 0.00 | 0.00 | 0.00 | 47 | 1013.4 |
| 20260906174056 | 37 | 309 | 1.6 | 6.4 | 0.00 | 0.00 | 0.00 | 48 | 1013.4 |
| 20260906173555 | 36 | 0 | 1.6 | 6.4 | 0.00 | 0.00 | 0.00 | 50 | 1013.6 |
| 20260906173106 | 36 | 146 | 1.6 | 8.0 | 0.00 | 0.00 | 0.00 | 49 | 1013.5 |
| 20260906172556 | 36 | 40 | 1.6 | 8.0 | 0.00 | 0.00 | 0.00 | 48 | 1013.6 |
| 20260906172055 | 37 | 254 | 0.0 | 4.8 | 0.00 | 0.00 | 0.00 | 48 | 1013.6 |
| 20260906171615 | 36 | 132 | 0.0 | 4.8 | 0.00 | 0.00 | 0.00 | 49 | 1013.8 |
| 20260906171055 | 37 | 192 | 1.6 | 4.8 | 0.00 | 0.00 | 0.00 | 50 | 1013.9 |
| 20260906170555 | 37 | 149 | 0.0 | 3.2 | 0.00 | 0.00 | 0.00 | 51 | 1013.9 |
| 20260906170122 | 36 | 348 | 0.0 | 4.8 | 0.00 | 0.00 | 0.00 | 51 | 1014.2 |
| 20260906165556 | 36 | 0 | 1.6 | 4.8 | 0.00 | 0.00 | 0.00 | 52 | 1014.2 |
| 20260906165055 | 36 | 26 | 0.0 | 4.8 | 0.00 | 0.00 | 0.00 | 52 | 1014.4 |
| 20260906164603 | 36 | 42 | 0.0 | 4.8 | 0.00 | 0.00 | 0.00 | 51 | 1014.3 |
| 20260906164057 | 36 | 5 | 1.6 | 3.2 | 0.00 | 0.00 | 0.00 | 53 | 1014.4 |
| 20260906163555 | 35 | 271 | 1.6 | 6.4 | 0.00 | 0.00 | 0.00 | 54 | 1014.4 |
| 20260906163112 | 36 | 30 | 0.0 | 6.4 | 0.00 | 0.00 | 0.00 | 53 | 1014.4 |
| 20260906162558 | 36 | 0 | 0.0 | 4.8 | 0.00 | 0.00 | 0.00 | 54 | 1014.5 |
| 20260906162055 | 35 | 5 | 0.0 | 4.8 | 0.00 | 0.00 | 0.00 | 56 | 1014.4 |
| 20260906161624 | 35 | 0 | 0.0 | 3.2 | 0.00 | 0.00 | 0.00 | 58 | 1014.5 |
| 20260906161055 | 34 | 20 | 0.0 | 3.2 | 0.00 | 0.00 | 0.00 | 56 | 1014.5 |
| 20260906160556 | 34 | 0 | 0.0 | 3.2 | 0.00 | 0.00 | 0.00 | 58 | 1014.4 |
| 20260906160105 | 34 | 0 | 0.0 | 4.8 | 0.00 | 0.00 | 0.00 | 57 | 1014.4 |
| 20260906155558 | 33 | 119 | 0.0 | 4.8 | 0.00 | 0.00 | 0.00 | 58 | 1014.3 |
| 20260906155055 | 33 | 16 | 1.6 | 3.2 | 0.00 | 0.00 | 0.00 | 58 | 1014.4 |
| 20260906154606 | 34 | 185 | 0.0 | 3.2 | 0.00 | 0.00 | 0.00 | 58 | 1014.4 |
| 20260906154055 | 33 | 0 | 0.0 | 3.2 | 0.00 | 0.00 | 0.00 | 60 | 1014.3 |
| 20260906153556 | 33 | 339 | 0.0 | 3.2 | 0.00 | 0.00 | 0.00 | 62 | 1014.2 |
| 20260906153123 | 32 | 349 | 0.0 | 3.2 | 0.00 | 0.00 | 0.00 | 63 | 1014.1 |
| 20260906152555 | 33 | 102 | 0.0 | 3.2 | 0.00 | 0.00 | 0.00 | 62 | 1014.0 |
| 20260906152055 | 32 | 27 | 0.0 | 3.2 | 0.00 | 0.00 | 0.00 | 65 | 1014.0 |
| 20260906151606 | 32 | 16 | 0.0 | 3.2 | 0.00 | 0.00 | 0.00 | 67 | 1013.9 |
| 20260906151055 | 31 | 0 | 0.0 | 3.2 | 0.00 | 0.00 | 0.00 | 65 | 1014.0 |
| 20260906150555 | 32 | 0 | 0.0 | 3.2 | 0.00 | 0.00 | 0.00 | 67 | 1014.0 |
| 20260906150110 | 31 | 0 | 0.0 | 3.2 | 0.00 | 0.00 | 0.00 | 68 | 1014.1 |
| 20260906145556 | 31 | 117 | 0.0 | 3.2 | 0.00 | 0.00 | 0.00 | 69 | 1014.0 |
| 20260906145056 | 31 | 252 | 0.0 | 3.2 | 0.00 | 0.00 | 0.00 | 67 | 1014.2 |
| 20260906144608 | 31 | 0 | 0.0 | 3.2 | 0.00 | 0.00 | 0.00 | 68 | 1014.2 |
| 20260906144055 | 30 | 0 | 0.0 | 3.2 | 0.00 | 0.00 | 0.00 | 70 | 1014.3 |
| 20260906143556 | 30 | 104 | 0.0 | 3.2 | 0.00 | 0.00 | 0.00 | 70 | 1014.4 |
| 20260906143107 | 30 | 0 | 0.0 | 3.2 | 0.00 | 0.00 | 0.00 | 70 | 1014.3 |
| 20260906142555 | 29 | 0 | 0.0 | 3.2 | 0.00 | 0.00 | 0.00 | 72 | 1014.3 |
| 20260906142056 | 29 | 114 | 1.6 | 3.2 | 0.00 | 0.00 | 0.00 | 73 | 1014.4 |
| 20260906141623 | 29 | 153 | 0.0 | 4.8 | 0.00 | 0.00 | 0.00 | 75 | 1014.3 |
| 20260906141055 | 28 | 0 | 0.0 | 4.8 | 0.00 | 0.00 | 0.00 | 75 | 1014.2 |
| 20260906140555 | 28 | 60 | 0.0 | 3.2 | 0.00 | 0.00 | 0.00 | 75 | 1014.2 |
| 20260906140107 | 28 | 68 | 0.0 | 4.8 | 0.00 | 0.00 | 0.00 | 75 | 1014.1 |
| 20260906135555 | 28 | 26 | 0.0 | 4.8 | 0.00 | 0.00 | 0.00 | 77 | 1014.1 |
| 20260906135054 | 27 | 65 | 0.0 | 3.2 | 0.00 | 0.00 | 0.00 | 77 | 1014.0 |
| 20260906134600 | 27 | 0 | 0.0 | 3.2 | 0.00 | 0.00 | 0.00 | 79 | 1014.2 |
| 20260906134055 | 26 | 0 | 0.0 | 3.2 | 0.00 | 0.00 | 0.00 | 80 | 1013.9 |
| 20260906133554 | 26 | 0 | 0.0 | 3.2 | 0.00 | 0.00 | 0.00 | 81 | 1014.0 |
| 20260906133111 | 26 | 0 | 0.0 | 3.2 | 0.00 | 0.00 | 0.00 | 82 | 1014.1 |
| 20260906132553 | 26 | 94 | 0.0 | 3.2 | 0.00 | 0.00 | 0.00 | 83 | 1013.9 |
| 20260906132055 | 25 | 0 | 0.0 | 3.2 | 0.00 | 0.00 | 0.00 | 84 | 1013.9 |
| 20260906131610 | 25 | 0 | 0.0 | 3.2 | 0.00 | 0.00 | 0.00 | 85 | 1013.8 |
| 20260906131056 | 25 | 0 | 0.0 | 1.6 | 0.00 | 0.00 | 0.00 | 86 | 1013.8 |
| 20260906130555 | 24 | 0 | 0.0 | 0.0 | 0.00 | 0.00 | 0.00 | 88 | 1013.8 |
| 20260906130106 | 23 | 0 | 0.0 | 0.0 | 0.00 | 0.00 | 0.00 | 87 | 1013.7 |
| 20260906125557 | 23 | 0 | 0.0 | 0.0 | 0.00 | 0.00 | 0.00 | 87 | 1013.7 |
| 20260906125057 | 23 | 0 | 0.0 | 0.0 | 0.00 | 0.00 | 0.00 | 87 | 1013.5 |
| 20260906124606 | 23 | 0 | 0.0 | 0.0 | 0.00 | 0.00 | 0.00 | 86 | 1013.3 |
| 20260906124058 | 23 | 0 | 0.0 | 0.0 | 0.00 | 0.00 | 0.00 | 86 | 1013.3 |
| 20260906123555 | 23 | 0 | 0.0 | 0.0 | 0.00 | 0.00 | 0.00 | 86 | 1013.4 |
| 20260906123110 | 23 | 0 | 0.0 | 0.0 | 0.00 | 0.00 | 0.00 | 86 | 1013.4 |
| 20260906122555 | 23 | 0 | 0.0 | 0.0 | 0.00 | 0.00 | 0.00 | 86 | 1013.4 |
| 20260906122053 | 23 | 0 | 0.0 | 0.0 | 0.00 | 0.00 | 0.00 | 86 | 1013.3 |
| 20260906121616 | 23 | 0 | 0.0 | 0.0 | 0.00 | 0.00 | 0.00 | 86 | 1013.3 |
| 20260906121055 | 23 | 0 | 0.0 | 0.0 | 0.00 | 0.00 | 0.00 | 86 | 1013.2 |
| 20260906120558 | 23 | 0 | 0.0 | 0.0 | 0.00 | 0.00 | 0.00 | 86 | 1013.3 |
| 20260906120118 | 23 | 0 | 0.0 | 0.0 | 0.00 | 0.00 | 0.00 | 86 | 1013.2 |
| 20260906115555 | 23 | 0 | 0.0 | 0.0 | 0.00 | 0.00 | 0.00 | 86 | 1013.0 |
| 20260906115057 | 23 | 0 | 0.0 | 0.0 | 0.00 | 0.00 | 0.00 | 86 | 1013.1 |
| 20260906114607 | 23 | 0 | 0.0 | 0.0 | 0.00 | 0.00 | 0.00 | 86 | 1013.1 |
| 20260906114055 | 23 | 0 | 0.0 | 0.0 | 0.00 | 0.00 | 0.00 | 86 | 1013.1 |
| 20260906113555 | 23 | 0 | 0.0 | 0.0 | 0.00 | 0.00 | 0.00 | 86 | 1013.1 |
| 20260906113101 | 23 | 0 | 0.0 | 0.0 | 0.00 | 0.00 | 0.00 | 86 | 1012.9 |
| 20260906112555 | 23 | 0 | 0.0 | 0.0 | 0.00 | 0.00 | 0.00 | 86 | 1012.9 |
| 20260906112055 | 23 | 0 | 0.0 | 0.0 | 0.00 | 0.00 | 0.00 | 86 | 1013.0 |
| 20260906111604 | 23 | 0 | 0.0 | 0.0 | 0.00 | 0.00 | 0.00 | 86 | 1013.0 |
| 20260906111055 | 23 | 0 | 0.0 | 0.0 | 0.00 | 0.00 | 0.00 | 85 | 1013.0 |
| 20260906110556 | 23 | 0 | 0.0 | 0.0 | 0.00 | 0.00 | 0.00 | 85 | 1012.8 |
| 20260906110103 | 23 | 0 | 0.0 | 0.0 | 0.00 | 0.00 | 0.00 | 85 | 1012.7 |
| 20260906105555 | 23 | 0 | 0.0 | 0.0 | 0.00 | 0.00 | 0.00 | 85 | 1012.7 |
| 20260906105055 | 23 | 0 | 0.0 | 0.0 | 0.00 | 0.00 | 0.00 | 85 | 1012.6 |
| 20260906104602 | 23 | 0 | 0.0 | 0.0 | 0.00 | 0.00 | 0.00 | 85 | 1012.6 |
| 20260906104059 | 23 | 0 | 0.0 | 0.0 | 0.00 | 0.00 | 0.00 | 85 | 1012.6 |
| 20260906103559 | 23 | 0 | 0.0 | 0.0 | 0.00 | 0.00 | 0.00 | 84 | 1012.7 |
| 20260906103104 | 23 | 0 | 0.0 | 0.0 | 0.00 | 0.00 | 0.00 | 84 | 1012.5 |
| 20260906102555 | 24 | 0 | 0.0 | 0.0 | 0.00 | 0.00 | 0.00 | 84 | 1012.6 |
| 20260906102055 | 24 | 0 | 0.0 | 0.0 | 0.00 | 0.00 | 0.00 | 84 | 1012.4 |
| 20260906101620 | 24 | 0 | 0.0 | 0.0 | 0.00 | 0.00 | 0.00 | 84 | 1012.5 |
| 20260906101055 | 24 | 0 | 0.0 | 0.0 | 0.00 | 0.00 | 0.00 | 84 | 1012.4 |
| 20260906100555 | 24 | 0 | 0.0 | 0.0 | 0.00 | 0.00 | 0.00 | 83 | 1012.3 |
| 20260906100101 | 24 | 0 | 0.0 | 0.0 | 0.00 | 0.00 | 0.00 | 83 | 1012.3 |
| 20260906095556 | 24 | 0 | 0.0 | 0.0 | 0.00 | 0.00 | 0.00 | 83 | 1012.2 |
| 20260906095055 | 24 | 0 | 0.0 | 0.0 | 0.00 | 0.00 | 0.00 | 83 | 1012.2 |
| 20260906094606 | 24 | 0 | 0.0 | 0.0 | 0.00 | 0.00 | 0.00 | 83 | 1012.2 |
| 20260906094055 | 24 | 0 | 0.0 | 0.0 | 0.00 | 0.00 | 0.00 | 83 | 1012.2 |
| 20260906093556 | 25 | 0 | 0.0 | 0.0 | 0.00 | 0.00 | 0.00 | 83 | 1012.3 |
| 20260906093101 | 25 | 0 | 0.0 | 0.0 | 0.00 | 0.00 | 0.00 | 82 | 1012.3 |
| 20260906092555 | 25 | 0 | 0.0 | 0.0 | 0.00 | 0.00 | 0.00 | 82 | 1012.2 |
| 20260906092056 | 25 | 0 | 0.0 | 0.0 | 0.00 | 0.00 | 0.00 | 82 | 1012.1 |
| 20260906091606 | 25 | 0 | 0.0 | 0.0 | 0.00 | 0.00 | 0.00 | 81 | 1012.2 |
| 20260906091055 | 25 | 0 | 0.0 | 0.0 | 0.00 | 0.00 | 0.00 | 81 | 1012.0 |
| 20260906090556 | 25 | 0 | 0.0 | 0.0 | 0.00 | 0.00 | 0.00 | 80 | 1011.9 |
| 20260906090104 | 25 | 0 | 0.0 | 0.0 | 0.00 | 0.00 | 0.00 | 81 | 1011.8 |
| 20260906085554 | 25 | 0 | 0.0 | 0.0 | 0.00 | 0.00 | 0.00 | 80 | 1011.7 |
| 20260906085055 | 25 | 0 | 0.0 | 0.0 | 0.00 | 0.00 | 0.00 | 80 | 1011.9 |
| 20260906084602 | 25 | 0 | 0.0 | 0.0 | 0.00 | 0.00 | 0.00 | 80 | 1011.9 |
| 20260906084056 | 25 | 0 | 0.0 | 0.0 | 0.00 | 0.00 | 0.00 | 80 | 1011.9 |
| 20260906083556 | 25 | 0 | 0.0 | 0.0 | 0.00 | 0.00 | 0.00 | 80 | 1011.8 |
| 20260906083106 | 25 | 0 | 0.0 | 0.0 | 0.00 | 0.00 | 0.00 | 79 | 1011.9 |
| 20260906082558 | 26 | 0 | 0.0 | 1.6 | 0.00 | 0.00 | 0.00 | 79 | 1011.9 |
| 20260906082055 | 26 | 0 | 0.0 | 1.6 | 0.00 | 0.00 | 0.00 | 78 | 1012.0 |
| 20260906081605 | 26 | 0 | 0.0 | 0.0 | 0.00 | 0.00 | 0.00 | 78 | 1012.2 |
| 20260906081055 | 26 | 0 | 0.0 | 0.0 | 0.00 | 0.00 | 0.00 | 78 | 1012.1 |
| 20260906080555 | 26 | 0 | 0.0 | 0.0 | 0.00 | 0.00 | 0.00 | 78 | 1012.2 |
| 20260906080105 | 26 | 0 | 0.0 | 0.0 | 0.00 | 0.00 | 0.00 | 78 | 1012.3 |
| 20260906075555 | 26 | 0 | 0.0 | 0.0 | 0.00 | 0.00 | 0.00 | 78 | 1012.1 |
| 20260906075055 | 26 | 0 | 0.0 | 1.6 | 0.00 | 0.00 | 0.00 | 76 | 1012.1 |
| 20260906074602 | 26 | 0 | 0.0 | 1.6 | 0.00 | 0.00 | 0.00 | 76 | 1012.0 |
| 20260906074057 | 26 | 0 | 0.0 | 3.2 | 0.00 | 0.00 | 0.00 | 76 | 1012.2 |
| 20260906073559 | 26 | 41 | 0.0 | 3.2 | 0.00 | 0.00 | 0.00 | 76 | 1012.1 |
| 20260906073100 | 27 | 0 | 0.0 | 1.6 | 0.00 | 0.00 | 0.00 | 76 | 1012.2 |
| 20260906072556 | 27 | 0 | 0.0 | 1.6 | 0.00 | 0.00 | 0.00 | 76 | 1012.1 |
| 20260906072056 | 27 | 0 | 0.0 | 3.2 | 0.00 | 0.00 | 0.00 | 75 | 1012.2 |
| 20260906071607 | 27 | 0 | 0.0 | 3.2 | 0.00 | 0.00 | 0.00 | 75 | 1012.2 |
| 20260906071055 | 27 | 0 | 0.0 | 1.6 | 0.00 | 0.00 | 0.00 | 74 | 1012.4 |
| 20260906070556 | 27 | 0 | 0.0 | 1.6 | 0.00 | 0.00 | 0.00 | 74 | 1012.4 |
| 20260906070104 | 27 | 0 | 0.0 | 3.2 | 0.00 | 0.00 | 0.00 | 74 | 1012.4 |
| 20260906065555 | 27 | 0 | 0.0 | 3.2 | 0.00 | 0.00 | 0.00 | 73 | 1012.4 |
| 20260906065056 | 27 | 46 | 0.0 | 3.2 | 0.00 | 0.00 | 0.00 | 73 | 1012.7 |
| 20260906064604 | 28 | 44 | 0.0 | 4.8 | 0.00 | 0.00 | 0.00 | 72 | 1012.6 |
| 20260906064059 | 28 | 0 | 1.6 | 4.8 | 0.00 | 0.00 | 0.00 | 72 | 1012.6 |
| 20260906063555 | 28 | 0 | 0.0 | 1.6 | 0.00 | 0.00 | 0.00 | 73 | 1012.7 |
| 20260906063100 | 28 | 0 | 0.0 | 3.2 | 0.00 | 0.00 | 0.00 | 73 | 1012.8 |
| 20260906062556 | 28 | 0 | 0.0 | 3.2 | 0.00 | 0.00 | 0.00 | 73 | 1012.8 |
| 20260906062055 | 28 | 0 | 0.0 | 3.2 | 0.00 | 0.00 | 0.00 | 73 | 1012.9 |
| 20260906061606 | 28 | 213 | 0.0 | 3.2 | 0.00 | 0.00 | 0.00 | 73 | 1013.0 |
| 20260906061055 | 28 | 0 | 0.0 | 3.2 | 0.00 | 0.00 | 0.00 | 74 | 1012.9 |
| 20260906060555 | 28 | 0 | 0.0 | 3.2 | 0.00 | 0.00 | 0.00 | 74 | 1012.8 |
| 20260906060136 | 28 | 0 | 0.0 | 3.2 | 0.00 | 0.00 | 0.00 | 74 | 1012.8 |
| 20260906055555 | 28 | 0 | 0.0 | 3.2 | 0.00 | 0.00 | 0.00 | 74 | 1012.8 |
| 20260906055055 | 28 | 0 | 0.0 | 1.6 | 0.00 | 0.00 | 0.00 | 74 | 1012.8 |
| 20260906054615 | 28 | 0 | 0.0 | 3.2 | 0.00 | 0.00 | 0.00 | 73 | 1012.7 |
| 20260906054056 | 28 | 0 | 0.0 | 4.8 | 0.00 | 0.00 | 0.00 | 73 | 1012.7 |
| 20260906053555 | 28 | 0 | 0.0 | 4.8 | 0.00 | 0.00 | 0.00 | 72 | 1012.7 |
| 20260906053101 | 28 | 0 | 0.0 | 3.2 | 0.00 | 0.00 | 0.00 | 72 | 1012.7 |
| 20260906052556 | 28 | 0 | 0.0 | 3.2 | 0.00 | 0.00 | 0.00 | 72 | 1012.6 |
| 20260906052056 | 28 | 70 | 0.0 | 3.2 | 0.00 | 0.00 | 0.00 | 72 | 1012.7 |
| 20260906051605 | 28 | 68 | 0.0 | 3.2 | 0.00 | 0.00 | 0.00 | 71 | 1012.6 |
| 20260906051059 | 28 | 0 | 0.0 | 3.2 | 0.00 | 0.00 | 0.00 | 71 | 1012.4 |
| 20260906050559 | 28 | 0 | 0.0 | 3.2 | 0.00 | 0.00 | 0.00 | 71 | 1012.3 |
| 20260906050105 | 28 | 0 | 0.0 | 3.2 | 0.00 | 0.00 | 0.00 | 70 | 1012.3 |
| 20260906045556 | 28 | 0 | 0.0 | 3.2 | 0.00 | 0.00 | 0.00 | 70 | 1012.6 |
| 20260906045056 | 28 | 0 | 0.0 | 4.8 | 0.00 | 0.00 | 0.00 | 70 | 1012.7 |
| 20260906044602 | 29 | 0 | 0.0 | 4.8 | 0.00 | 0.00 | 0.00 | 69 | 1012.8 |
| 20260906044100 | 29 | 0 | 0.0 | 4.8 | 0.00 | 0.00 | 0.00 | 69 | 1012.8 |
| 20260906043555 | 29 | 0 | 1.6 | 4.8 | 0.00 | 0.00 | 0.00 | 68 | 1012.7 |
| 20260906043105 | 29 | 104 | 1.6 | 4.8 | 0.00 | 0.00 | 0.00 | 68 | 1012.7 |
| 20260906042556 | 29 | 61 | 0.0 | 4.8 | 0.00 | 0.00 | 0.00 | 68 | 1012.5 |
| 20260906042055 | 29 | 67 | 1.6 | 4.8 | 0.00 | 0.00 | 0.00 | 67 | 1012.5 |
| 20260906041605 | 30 | 34 | 0.0 | 4.8 | 0.00 | 0.00 | 0.00 | 67 | 1012.3 |
| 20260906041055 | 30 | 55 | 0.0 | 6.4 | 0.00 | 0.00 | 0.00 | 66 | 1012.3 |
| 20260906040556 | 30 | 49 | 1.6 | 8.0 | 0.00 | 0.00 | 0.00 | 65 | 1012.4 |
| 20260906040109 | 30 | 275 | 0.0 | 8.0 | 0.00 | 0.00 | 0.00 | 65 | 1012.4 |
| 20260906035555 | 30 | 49 | 1.6 | 6.4 | 0.00 | 0.00 | 0.00 | 64 | 1012.5 |
| 20260906035055 | 30 | 160 | 1.6 | 8.0 | 0.00 | 0.00 | 0.00 | 63 | 1012.6 |
| 20260906034607 | 30 | 53 | 1.6 | 8.0 | 0.00 | 0.00 | 0.00 | 62 | 1012.6 |
| 20260906034055 | 30 | 208 | 0.0 | 3.2 | 0.00 | 0.00 | 0.00 | 61 | 1012.6 |
| 20260906033554 | 30 | 113 | 0.0 | 3.2 | 0.00 | 0.00 | 0.00 | 61 | 1012.9 |
| 20260906033100 | 30 | 0 | 0.0 | 4.8 | 0.00 | 0.00 | 0.00 | 60 | 1012.7 |
| 20260906032554 | 31 | 162 | 0.0 | 4.8 | 0.00 | 0.00 | 0.00 | 59 | 1012.5 |
| 20260906032055 | 31 | 64 | 1.6 | 6.4 | 0.00 | 0.00 | 0.00 | 59 | 1012.5 |
| 20260906031606 | 31 | 65 | 1.6 | 6.4 | 0.00 | 0.00 | 0.00 | 59 | 1012.5 |
| 20260906031055 | 31 | 62 | 0.0 | 3.2 | 0.00 | 0.00 | 0.00 | 59 | 1012.5 |
| 20260906030555 | 31 | 32 | 0.0 | 3.2 | 0.00 | 0.00 | 0.00 | 59 | 1012.3 |
| 20260906030101 | 31 | 0 | 0.0 | 3.2 | 0.00 | 0.00 | 0.00 | 58 | 1012.3 |
| 20260906025557 | 31 | 67 | 0.0 | 3.2 | 0.00 | 0.00 | 0.00 | 58 | 1012.2 |
| 20260906025057 | 31 | 0 | 0.0 | 4.8 | 0.00 | 0.00 | 0.00 | 58 | 1012.0 |
| 20260906024613 | 31 | 76 | 0.0 | 6.4 | 0.00 | 0.00 | 0.00 | 57 | 1011.9 |
| 20260906024054 | 31 | 0 | 0.0 | 6.4 | 0.00 | 0.00 | 0.00 | 57 | 1012.0 |
| 20260906023555 | 31 | 196 | 0.0 | 4.8 | 0.00 | 0.00 | 0.00 | 57 | 1012.0 |
| 20260906023104 | 31 | 92 | 1.6 | 6.4 | 0.00 | 0.00 | 0.00 | 57 | 1012.0 |
| 20260906022556 | 31 | 0 | 0.0 | 6.4 | 0.00 | 0.00 | 0.00 | 57 | 1012.0 |
| 20260906022055 | 31 | 58 | 0.0 | 8.0 | 0.00 | 0.00 | 0.00 | 56 | 1011.9 |
| 20260906021607 | 32 | 64 | 1.6 | 8.0 | 0.00 | 0.00 | 0.00 | 56 | 1011.8 |
| 20260906021055 | 32 | 275 | 1.6 | 8.0 | 0.00 | 0.00 | 0.00 | 56 | 1011.7 |
| 20260906020554 | 32 | 29 | 1.6 | 8.0 | 0.00 | 0.00 | 0.00 | 56 | 1011.7 |
| 20260906020109 | 32 | 160 | 1.6 | 8.0 | 0.00 | 0.00 | 0.00 | 55 | 1011.6 |
| 20260906015558 | 32 | 98 | 1.6 | 4.8 | 0.00 | 0.00 | 0.00 | 55 | 1011.5 |
| 20260906015056 | 32 | 67 | 1.6 | 6.4 | 0.00 | 0.00 | 0.00 | 55 | 1011.5 |
| 20260906014607 | 32 | 67 | 1.6 | 9.7 | 0.00 | 0.00 | 0.00 | 54 | 1011.5 |
| 20260906014054 | 32 | 61 | 1.6 | 9.7 | 0.00 | 0.00 | 0.00 | 54 | 1011.2 |
| 20260906013555 | 32 | 61 | 0.0 | 6.4 | 0.00 | 0.00 | 0.00 | 54 | 1011.4 |
| 20260906013104 | 32 | 0 | 1.6 | 8.0 | 0.00 | 0.00 | 0.00 | 54 | 1011.2 |
| 20260906012554 | 32 | 62 | 3.2 | 8.0 | 0.00 | 0.00 | 0.00 | 54 | 1011.1 |
| 20260906012055 | 33 | 173 | 1.6 | 8.0 | 0.00 | 0.00 | 0.00 | 53 | 1011.1 |
| 20260906011602 | 33 | 15 | 1.6 | 8.0 | 0.00 | 0.00 | 0.00 | 53 | 1010.9 |
| 20260906011056 | 33 | 201 | 3.2 | 12.9 | 0.00 | 0.00 | 0.00 | 52 | 1010.9 |
| 20260906010554 | 33 | 189 | 3.2 | 12.9 | 0.00 | 0.00 | 0.00 | 50 | 1010.7 |
| 20260906010143 | 33 | 84 | 1.6 | 12.9 | 0.00 | 0.00 | 0.00 | 48 | 1010.7 |
| 20260906005554 | 33 | 0 | 0.0 | 4.8 | 0.00 | 0.00 | 0.00 | 47 | 1010.6 |
| 20260906005057 | 34 | 76 | 0.0 | 4.8 | 0.00 | 0.00 | 0.00 | 46 | 1010.5 |
| 20260906004617 | 34 | 0 | 0.0 | 4.8 | 0.00 | 0.00 | 0.00 | 46 | 1010.6 |
| 20260906004055 | 34 | 182 | 0.0 | 4.8 | 0.00 | 0.00 | 0.00 | 45 | 1010.6 |
| 20260906003555 | 35 | 0 | 0.0 | 4.8 | 0.00 | 0.00 | 0.00 | 45 | 1010.6 |
| 20260906003108 | 35 | 0 | 0.0 | 4.8 | 0.00 | 0.00 | 0.00 | 45 | 1010.8 |
| 20260906002554 | 35 | 0 | 0.0 | 4.8 | 0.00 | 0.00 | 0.00 | 45 | 1010.6 |
| 20260906002052 | 35 | 0 | 1.6 | 4.8 | 0.00 | 0.00 | 0.00 | 44 | 1010.7 |
| 20260906001606 | 35 | 0 | 0.0 | 4.8 | 0.00 | 0.00 | 0.00 | 44 | 1010.6 |
| 20260906001054 | 35 | 0 | 1.6 | 4.8 | 0.00 | 0.00 | 0.00 | 43 | 1010.4 |
| 20260906000555 | 35 | 200 | 0.0 | 6.4 | 0.00 | 0.00 | 0.00 | 44 | 1010.3 |
| 20260906000108 | 35 | 0 | 1.6 | 11.3 | 0.00 | 0.00 | 0.00 | 43 | 1010.3 |
| 20260905235554 | 35 | 0 | 0.0 | 11.3 | 0.00 | 0.00 | 0.00 | 43 | 1010.3 |
| 20260905235055 | 36 | 197 | 1.6 | 11.3 | 0.00 | 0.00 | 0.00 | 42 | 1010.2 |
| 20260905234608 | 36 | 180 | 1.6 | 8.0 | 0.00 | 0.00 | 0.00 | 42 | 1010.4 |
| 20260905234056 | 36 | 118 | 1.6 | 6.4 | 0.00 | 0.00 | 0.00 | 42 | 1010.3 |
| 20260905233556 | 36 | 0 | 0.0 | 4.8 | 0.00 | 0.00 | 0.00 | 41 | 1010.3 |
| 20260905233103 | 36 | 187 | 0.0 | 6.4 | 0.00 | 0.00 | 0.00 | 40 | 1010.2 |
| 20260905232556 | 36 | 64 | 1.6 | 8.0 | 0.00 | 0.00 | 0.00 | 40 | 1010.2 |
| 20260905232056 | 36 | 151 | 0.0 | 8.0 | 0.00 | 0.00 | 0.00 | 39 | 1010.3 |
| 20260905231620 | 36 | 210 | 1.6 | 8.0 | 0.00 | 0.00 | 0.00 | 39 | 1010.3 |
| 20260905231055 | 36 | 124 | 1.6 | 8.0 | 0.00 | 0.00 | 0.00 | 40 | 1010.3 |